Showing default

LYRA-1, 62664

Orbit data source: Space-Track

LYRA-1, 62664 is a payload satellite owned by Echostar AU (AU) in SSO that was launched on Tue, 14 Jan 2025 UTC via an FALCON 9 launch vehicle from the Air Force Western Test Range (AFWTR). Payload-class satellites include a variety of spacecraft equipped with specific instruments for various scientific and technological missions. These include communications satellites like Starlink; space stations such as the ISS; scientific satellites like the Hubble; Earth observation satellites from companies like Planet Labs, Umbra, and HawkEye 360; GPS; miniature CubeSats for education and research; and military/defense satellites.

Loading next visibility...
Identifier
62664, 2025-009BH
Orbit
SSO
Country
Flag of AUAU / AUS
Related business
Manufacturer
Astro Digital
Mission
Operational Commercial Communications
Bus & Motor
CORVUS XL, Unknown motor
Mass
74 kg wet, 74 kg dry
Launch date (UTC)
2025-01-14 (1 year ago)
Launch vehicle
FALCON 9
Launch site
Air Force Western Test Range (AFWTR)
Object type
Payload
Rocket body
Debris
Shape & HBR
Box, 1.0 m
Radar Cross Section
0.425 m², Medium (>0.1 m² and < 1m²)

Expand to show TLE details & history
Last TLE update: 12 hours ago

TLE from 12 hours ago
0 LYRA-1
1 62664U 25009BH  26062.19559015  .00011858  00000-0  60688-3 0  9995
2 62664  97.4069 139.1217 0009319 193.8928 166.2050 15.16733801 62347
Epoch: 2026-03-03T04:41Z
TLE epoch observation values (Epoch: 2026-03-03T04:41:38.988Z)
Latitude
-0.00009°
Longitude
-92.26887°
Altitude
525.047 km
Speed
7.597 km/s
True Right ascension
09h 16m 29s
True Declination
0° 00' 00"
Sunlit
Object was in full shadow at epoch
Visualization orbit readout
Latitude
Unknown
Longitude
Unknown
Altitude
Unknown
Speed
Unknown
Apparent Right ascension
Unknown
Apparent Declination
Unknown
Sunlit
N/A
Visualization observer readout
Local Sidereal Time
20:22:23
Azimuth
Unknown
Elevation
Unknown
Doppler factor
Unknown
Orbital elements
Apogee altitude
519.112 km
Perigee altitude
506.269 km
Semi-major axis
6,890.827 km
Eccentricity
0.00093
Inclination
97.4069°
RAAN
139.1217°
Arg. of periapsis
193.8928°
True anomaly
166.23043°
Mean anomaly
166.205°
Eccentric anomaly
166.21772°
Mean motion
3.79434 °/min
Orbital period
94.88 mins
BSTAR
0.00060688
Loading maneuver chart data...
Computing Atmospheric mass density...
Loading historical data...
Loading historical data...
Loading historical data...
Loading historical data...
Loading historical data...
Loading historical data...
Loading historical data...

Documentation

Showing up to 5 results
|